time_stamp(utc),avg(mph),gust(mph),direction(deg),12m_air_temp(f),sonic_u(cm/s),sonic_v(cm/s),sonic_w(cm/s),pressure,2m_air_temp(f),pyranometer(W/m^2)
"2019-02-16 00:02:07+00",16.2,17.2,,46.8,-500,-536,10,1003.96,45.9,0
"2019-02-16 00:07:07+00",15.8,18.8,,46.7,-490,-519,10,1003.94,45.9,0
"2019-02-16 00:12:07+00",16.0,19.0,,46.7,-494,-540,9,1003.9,45.9,0
"2019-02-16 00:17:07+00",15.9,17.9,,46.6,-464,-560,-3,1003.91,45.9,0
"2019-02-16 00:22:07+00",15.5,17.5,,46.5,-442,-549,4,1003.9,45.8,0
"2019-02-16 00:27:07+00",14.2,15.2,,46.4,-408,-494,6,1004,45.7,0
"2019-02-16 00:32:07+00",15.0,17.0,,46.4,-430,-530,3,1003.93,45.6,0
"2019-02-16 00:37:07+00",14.9,16.9,,46.8,-408,-537,-1,1003.95,45.9,0
"2019-02-16 00:42:07+00",14.5,16.5,,46.7,-377,-537,5,1003.99,45.8,0
"2019-02-16 00:47:07+00",14.9,16.9,,46.9,-390,-553,3,1003.87,46,0
"2019-02-16 00:52:07+00",15.0,17.0,,46.9,-404,-544,-11,1003.87,46.1,0
"2019-02-16 00:57:07+00",13.9,14.9,,46.8,-361,-513,2,1003.8,46.1,0
"2019-02-16 01:02:07+00",12.6,14.6,,46.6,-295,-476,-5,1003.86,45.9,0
"2019-02-16 01:07:07+00",12.8,14.8,,46.4,-305,-478,-4,1003.91,45.7,0
"2019-02-16 01:12:07+00",11.7,12.7,,46.3,-226,-446,-3,1003.91,45.6,0
"2019-02-16 01:17:07+00",9.3,10.3,,46.1,-164,-362,-3,1003.88,45.4,0
"2019-02-16 01:22:07+00",9.2,11.2,,46.2,-156,-362,3,1003.86,45.3,0
"2019-02-16 01:27:07+00",10.5,12.5,,46.3,-223,-404,-1,1003.8,45.4,0
"2019-02-16 01:32:07+00",11.2,12.2,,46.3,-271,-415,-5,1003.77,45.4,0
"2019-02-16 01:37:07+00",10.3,11.3,,46.1,-241,-387,-2,1003.84,45.3,0
"2019-02-16 01:42:07+00",10.1,11.1,,46.1,-256,-377,2,1003.78,45.2,0
"2019-02-16 01:47:07+00",10.8,11.8,,46.4,-267,-402,2,1003.79,45.3,0
"2019-02-16 01:52:07+00",10.4,12.4,,46.3,-218,-395,2,1003.81,45.4,0
"2019-02-16 01:57:07+00",10.6,12.6,,46.3,-247,-399,-2,1003.77,45.4,0
"2019-02-16 02:02:07+00",11.0,13.0,,46.2,-205,-431,-1,1003.74,45.3,0
"2019-02-16 02:07:07+00",10.1,12.1,,45.8,-161,-409,-8,1003.8,45.3,0
"2019-02-16 02:12:07+00",9.9,11.9,,45.5,-186,-384,-3,1003.78,45,0
"2019-02-16 02:17:07+00",11.6,12.6,,45.5,-279,-434,-2,1003.75,44.9,0
"2019-02-16 02:22:07+00",10.8,12.8,,45.4,-284,-397,1,1003.75,44.8,0
"2019-02-16 02:27:07+00",11.9,12.9,,45.5,-263,-448,-8,1003.86,44.7,0
"2019-02-16 02:32:07+00",11.8,12.8,,45.7,-318,-426,5,1003.95,44.8,0
"2019-02-16 02:37:07+00",13.6,15.6,,46.1,-426,-431,-9,1003.92,45,0
"2019-02-16 02:42:07+00",12.5,15.5,,45.9,-402,-378,10,1003.85,45.1,0
"2019-02-16 02:47:07+00",14.1,17.1,,45.7,-444,-438,-3,1003.94,45,0
"2019-02-16 02:52:07+00",13.3,16.3,,45.6,-421,-423,0,1003.93,44.9,0
"2019-02-16 02:57:07+00",12.4,14.4,,45.5,-396,-370,0,1003.91,44.9,0
"2019-02-16 03:02:07+00",11.4,13.4,,45.2,-350,-378,13,1003.89,44.8,0
"2019-02-16 03:07:07+00",13.7,15.7,,45.4,-407,-460,-9,1003.97,44.7,0
"2019-02-16 03:12:07+00",12.4,14.4,,45.5,-377,-416,20,1003.97,44.8,0
"2019-02-16 03:17:07+00",13.4,14.4,,45.4,-417,-434,-2,1003.99,44.8,0
"2019-02-16 03:22:07+00",11.2,12.2,,45.4,-483,-162,14,1004.2,44.7,0
"2019-02-16 03:27:07+00",14.5,17.5,,45,-640,17,32,1004.63,44.5,0
"2019-02-16 03:32:07+00",10.1,12.1,,44.5,-427,-124,28,1004.47,44.2,0
"2019-02-16 03:37:07+00",11.0,13.0,,44.8,-460,-100,11,1004.46,44,0
"2019-02-16 03:42:07+00",10.4,12.4,,45.1,-429,-134,17,1004.48,44.1,0
"2019-02-16 03:47:07+00",11.4,12.4,,45.9,-464,-136,18,1004.53,44.1,0
"2019-02-16 03:52:07+00",10.8,11.8,,47.5,-445,-98,15,1004.52,44.4,0
"2019-02-16 03:57:07+00",10.5,11.5,,48.1,-447,-66,16,1004.55,44.6,0
"2019-02-16 04:02:07+00",9.7,10.7,,49,-420,-14,14,1004.5,44.6,0
"2019-02-16 04:07:07+00",11.3,13.3,,50.3,-497,102,23,1004.69,45.1,0
"2019-02-16 04:12:07+00",12.5,14.5,,51.1,-508,210,32,1004.6,46.1,0
"2019-02-16 04:17:07+00",11.3,12.3,,50.5,-453,221,25,1004.62,46.8,0
"2019-02-16 04:22:07+00",13.8,15.8,,50.8,-535,319,27,1004.61,47.3,0
"2019-02-16 04:27:07+00",13.3,14.3,,51.3,-537,263,28,1004.64,47.7,0
"2019-02-16 04:32:07+00",12.6,14.6,,51,-481,296,21,1004.69,48.1,0
"2019-02-16 04:37:07+00",12.4,14.4,,50.7,-466,296,31,1004.7,48.2,0
"2019-02-16 04:42:07+00",13.9,14.9,,50.8,-538,307,25,1004.75,48.1,0
"2019-02-16 04:47:07+00",14.0,16.0,,51.1,-544,326,26,1004.81,48.3,0
"2019-02-16 04:52:07+00",14.3,16.3,,51.2,-562,277,35,1004.88,48.4,0
"2019-02-16 04:57:07+00",14.4,15.4,,51.3,-607,214,31,1005,48.7,0
"2019-02-16 05:02:07+00",14.8,15.8,,50.8,-629,229,35,1005.04,48.4,0
"2019-02-16 05:07:07+00",17.2,19.2,,51.1,-715,305,36,1005.13,48.3,0
"2019-02-16 05:12:07+00",17.5,19.5,,51.5,-697,353,40,1005.02,48.8,0
"2019-02-16 05:17:07+00",13.6,14.6,,50.3,-567,230,38,1005.07,48.4,0
"2019-02-16 05:22:07+00",12.4,13.4,,49.5,-522,192,25,1005.18,47.8,0
"2019-02-16 05:27:07+00",13.0,14.0,,49.2,-543,217,17,1005.31,47.3,0
"2019-02-16 05:32:07+00",12.8,14.8,,49.6,-529,215,28,1005.33,46.9,0
"2019-02-16 05:37:07+00",13.5,15.5,,49.4,-559,216,27,1005.32,46.6,0
"2019-02-16 05:42:07+00",13.8,15.8,,49,-568,249,29,1005.37,46.4,0
"2019-02-16 05:47:07+00",14.1,16.1,,49.2,-562,300,31,1005.38,46.4,0
"2019-02-16 05:52:07+00",13.3,15.3,,49,-519,273,20,1005.36,46.5,0
"2019-02-16 05:57:07+00",13.3,15.3,,49.3,-496,320,26,1005.43,46.6,0
"2019-02-16 06:02:07+00",12.0,13.0,,48.7,-408,357,30,1005.5,46.3,0
"2019-02-16 06:07:07+00",14.4,17.4,,49.3,-432,475,47,1005.54,46.7,0
"2019-02-16 06:12:07+00",17.9,21.9,,50.5,-475,646,34,1005.66,47.9,0
"2019-02-16 06:17:07+00",18.9,21.9,,50.8,-433,726,50,1005.67,48.7,0
"2019-02-16 06:22:07+00",18.0,21.0,,50.2,-572,572,44,1005.85,48.6,0
"2019-02-16 06:27:07+00",19.1,21.1,,49.7,-636,577,48,1005.83,48.1,0
"2019-02-16 06:32:07+00",18.0,19.0,,49.1,-575,562,43,1005.82,47.5,0
"2019-02-16 06:37:07+00",13.4,14.4,,48.5,-365,462,33,1005.85,47,0
"2019-02-16 06:42:07+00",17.4,20.4,,49.2,-382,668,44,1005.9,47,0
"2019-02-16 06:47:07+00",16.1,18.1,,49.1,-332,631,37,1005.87,47.3,0
"2019-02-16 06:52:07+00",15.3,18.3,,49.4,-314,595,31,1005.88,47.5,0
"2019-02-16 06:57:07+00",16.1,18.1,,49,-371,621,39,1005.84,47.4,0
"2019-02-16 07:02:07+00",16.5,18.5,,49.2,-391,630,52,1005.77,47.5,0
"2019-02-16 07:07:07+00",15.8,17.8,,48.5,-439,550,28,1005.74,47,0
"2019-02-16 07:12:07+00",12.8,13.8,,47.8,-312,473,29,1005.55,46.5,0
"2019-02-16 07:17:07+00",12.0,13.0,,47.9,-294,435,33,1005.69,46.2,0
"2019-02-16 07:22:07+00",13.7,16.7,,47.9,-350,503,30,1005.75,46.1,0
"2019-02-16 07:27:07+00",16.3,19.3,,47.9,-394,603,33,1005.83,46,0
"2019-02-16 07:32:07+00",15.3,19.3,,47.9,-389,562,37,1005.98,46.2,0
"2019-02-16 07:37:07+00",13.6,14.6,,47.4,-353,496,33,1006.11,46,0
"2019-02-16 07:42:07+00",12.6,13.6,,47.1,-349,437,32,1006.14,45.8,0
"2019-02-16 07:47:07+00",14.0,18.0,,47.2,-332,516,29,1006.17,45.7,0
"2019-02-16 07:52:07+00",15.8,17.8,,46.7,-474,541,42,1006.45,45.5,0
"2019-02-16 07:57:07+00",16.5,19.5,,46.3,-496,548,50,1006.37,45.2,0
"2019-02-16 08:02:07+00",18.2,21.2,,46.2,-438,681,38,1006.25,44.9,0
"2019-02-16 08:07:07+00",18.6,21.6,,46.4,-459,677,52,1006.27,45,0
"2019-02-16 08:12:07+00",16.6,19.6,,46.1,-480,565,42,1006.39,45.1,0
"2019-02-16 08:17:07+00",15.4,19.4,,45.5,-404,559,48,1006.47,44.5,0
"2019-02-16 08:22:07+00",14.7,15.7,,45.5,-400,518,36,1006.62,44.3,0
"2019-02-16 08:27:07+00",14.7,16.7,,45.3,-405,517,36,1006.56,44.1,0
"2019-02-16 08:32:07+00",15.7,17.7,,45.2,-428,546,36,1006.48,44.1,0
"2019-02-16 08:37:07+00",16.1,18.1,,45.3,-456,555,41,1006.46,44.1,0
"2019-02-16 08:42:07+00",16.6,18.6,,45.3,-466,567,47,1006.5,44.1,0
"2019-02-16 08:47:07+00",14.7,16.7,,44.9,-402,516,37,1006.63,43.8,0
"2019-02-16 08:52:07+00",17.1,20.1,,45,-420,630,52,1006.72,43.8,0
"2019-02-16 08:57:07+00",18.9,20.9,,44.9,-487,685,48,1006.81,43.9,0
"2019-02-16 09:02:07+00",20.1,23.1,,44.7,-476,755,51,1006.82,43.8,0
"2019-02-16 09:07:07+00",20.3,22.3,,44.6,-506,756,44,1006.79,43.6,0
"2019-02-16 09:12:07+00",17.9,20.9,,44.3,-403,680,57,1006.85,43.5,0
"2019-02-16 09:17:07+00",14.1,18.1,,44,-330,526,38,1007.03,43.3,0
"2019-02-16 09:22:07+00",15.8,16.8,,44.1,-368,604,33,1007.21,43.2,0
"2019-02-16 09:27:07+00",12.1,14.1,,43.9,-336,438,45,1007.33,43.2,0
"2019-02-16 09:32:07+00",16.2,17.2,,43.9,-509,506,43,1007.44,43.1,0
"2019-02-16 09:37:07+00",16.8,20.8,,43.8,-516,532,62,1007.57,43,0
"2019-02-16 09:42:07+00",17.8,19.8,,43.8,-540,592,47,1007.66,43,0
"2019-02-16 09:47:07+00",17.2,19.2,,43.7,-502,578,54,1007.63,43,0
"2019-02-16 09:52:07+00",15.3,16.3,,43.5,-459,510,46,1007.69,42.8,0
"2019-02-16 09:57:07+00",14.4,15.4,,43.3,-376,512,34,1007.59,42.6,0
"2019-02-16 10:02:07+00",13.4,15.4,,43.4,-283,522,50,1007.48,42.6,0
"2019-02-16 10:07:07+00",13.5,16.5,,43.1,-221,548,48,1007.62,42.5,0
"2019-02-16 10:12:07+00",16.4,19.4,,43,-348,647,43,1007.71,42.4,0
"2019-02-16 10:17:07+00",14.6,16.6,,42.9,-339,550,51,1007.81,42.3,0
"2019-02-16 10:22:07+00",15.1,18.1,,42.9,-255,612,17,1007.67,42.3,0
"2019-02-16 10:27:07+00",16.7,19.7,,42.7,-377,653,47,1007.67,42.1,0
"2019-02-16 10:32:07+00",17.3,19.3,,42.5,-404,654,51,1007.89,42,0
"2019-02-16 10:37:07+00",17.5,19.5,,42.5,-418,658,48,1007.97,41.9,0
"2019-02-16 10:42:07+00",18.6,20.6,,42.4,-429,700,51,1008.02,41.8,0
"2019-02-16 10:47:07+00",14.6,16.6,,42.2,-318,563,36,1008.17,41.7,0
"2019-02-16 10:52:07+00",14.9,15.9,,42.1,-327,570,42,1008.22,41.5,0
"2019-02-16 10:57:07+00",13.8,15.8,,42.1,-337,521,50,1008.24,41.5,0
"2019-02-16 11:02:07+00",15.8,17.8,,41.9,-364,603,35,1008.23,41.3,0
"2019-02-16 11:07:07+00",14.5,17.5,,41.8,-323,546,34,1008.31,41.2,0
"2019-02-16 11:12:07+00",14.6,19.6,,41.7,-322,558,36,1008.38,41,0
"2019-02-16 11:17:07+00",14.7,16.7,,41.6,-343,558,41,1008.46,41,0
"2019-02-16 11:22:07+00",14.1,16.1,,41.2,-349,512,34,1008.4,40.7,0
"2019-02-16 11:27:07+00",15.8,18.8,,41.1,-372,583,37,1008.48,40.5,0
"2019-02-16 11:32:07+00",17.6,20.6,,41.1,-409,668,18,1008.35,40.3,0
"2019-02-16 11:37:07+00",15.9,17.9,,40.8,-339,610,40,1008.48,40.1,0
"2019-02-16 11:42:07+00",16.2,19.2,,40.8,-347,625,35,1008.6,40,0
"2019-02-16 11:47:07+00",18.3,22.3,,40.5,-453,678,31,1008.74,39.8,0
"2019-02-16 11:52:07+00",18.0,21.0,,40.4,-398,703,48,1008.8,39.6,0
"2019-02-16 11:57:07+00",15.7,17.7,,40.1,-288,638,49,1008.97,39.3,0
"2019-02-16 12:02:07+00",13.4,16.4,,39.8,-214,546,30,1008.91,39,0
"2019-02-16 12:07:07+00",14.0,17.0,,39.7,-266,558,33,1009.04,38.8,0
"2019-02-16 12:12:07+00",10.6,12.6,,39.4,-226,406,30,1009.1,38.6,0
"2019-02-16 12:17:07+00",12.6,14.6,,39.5,-269,481,29,1009.27,38.6,0
"2019-02-16 12:22:07+00",12.0,15.0,,39.4,-267,445,28,1009.34,38.7,0
"2019-02-16 12:27:07+00",11.8,13.8,,39.4,-279,438,33,1009.32,38.7,3.4
"2019-02-16 12:32:07+00",12.1,13.1,,39.3,-278,447,33,1009.49,38.7,8.9
"2019-02-16 12:37:07+00",12.8,14.8,,39.3,-287,484,32,1009.44,38.8,2.2
"2019-02-16 12:42:07+00",13.1,15.1,,39.2,-224,528,25,1009.35,38.7,9.7
"2019-02-16 12:47:07+00",11.3,12.3,,39,-203,449,23,1009.35,38.6,1
"2019-02-16 12:52:07+00",10.2,13.2,,38.7,-182,412,21,1009.42,38.4,1.7
"2019-02-16 12:57:07+00",11.9,13.9,,38.4,-249,462,27,1009.73,38,0.8
"2019-02-16 13:02:07+00",13.9,14.9,,38.7,-334,530,39,1009.89,38.3,92.8
"2019-02-16 13:07:07+00",12.4,13.4,,38.8,-203,510,28,1009.65,39,89.6
"2019-02-16 13:12:07+00",13.6,15.6,,38.8,-222,566,26,1009.89,39.3,113.1
"2019-02-16 13:17:07+00",13.8,15.8,,38.8,-263,545,33,1009.96,39.6,126.4
"2019-02-16 13:22:07+00",12.5,15.5,,38.7,-192,508,43,1010,39.7,130.4
"2019-02-16 13:27:07+00",12.0,15.0,,38.8,-191,497,41,1010.08,40,152.7
"2019-02-16 13:32:07+00",14.3,16.3,,38.8,-154,600,23,1010.06,40.3,192.7
"2019-02-16 13:37:07+00",17.0,20.0,,38.8,-257,709,36,1009.97,40.6,73.8
"2019-02-16 13:42:07+00",14.3,16.3,,38.3,-214,600,32,1010.06,39.7,59.6
"2019-02-16 13:47:07+00",14.3,16.3,,38.2,-228,581,27,1009.94,39,36
"2019-02-16 13:52:07+00",11.4,13.4,,38.1,-138,488,12,1010.05,38.8,220.3
"2019-02-16 13:57:07+00",12.9,15.9,,39.1,-126,537,31,1009.95,40,257.9
"2019-02-16 14:02:07+00",16.1,18.1,,39.1,-248,672,26,1010.01,40.6,116.4
"2019-02-16 14:07:07+00",13.8,15.8,,38.9,-181,577,20,1009.99,40.3,134.6
"2019-02-16 14:12:07+00",14.5,16.5,,38.9,-126,622,22,1010.09,40.2,172.4
"2019-02-16 14:17:07+00",15.9,17.9,,38.8,-91,695,16,1010.14,40.2,103.6
"2019-02-16 14:22:07+00",15.5,17.5,,38.5,-241,643,36,1010.21,39.9,80
"2019-02-16 14:27:07+00",15.8,17.8,,38.3,-171,668,25,1010.31,39.2,51.1
"2019-02-16 14:32:07+00",17.5,18.5,,38,-137,760,14,1010.36,38.8,47.8
"2019-02-16 14:37:07+00",16.0,18.0,,37.7,-187,672,0,1010.3,38.5,99.6
"2019-02-16 14:42:07+00",15.2,17.2,,37.8,-342,570,49,1010.42,38.4,111.3
"2019-02-16 14:47:07+00",13.7,15.7,,37.9,-307,518,39,1010.27,38.5,104.8
"2019-02-16 14:52:07+00",16.2,18.2,,37.6,-333,661,29,1010.42,38.3,77.8
"2019-02-16 14:57:07+00",14.4,16.4,,37.4,-258,579,34,1010.42,38,64
"2019-02-16 15:02:07+00",14.5,16.5,,37.3,-121,624,12,1010.4,37.8,65.5
"2019-02-16 15:07:07+00",9.2,11.2,,38,-104,390,34,1010.45,38.7,276.8
"2019-02-16 15:12:07+00",10.8,11.8,,38.5,1,458,10,1010.32,40.2,263.5
"2019-02-16 15:17:07+00",12.5,13.5,,38.9,2,539,17,1010.29,41.2,278.2
"2019-02-16 15:22:07+00",8.9,10.9,,38.8,-54,372,8,1010.35,41.5,259.7
"2019-02-16 15:27:07+00",6.9,8.9,,39.1,-32,293,17,1010.44,42,281.3
"2019-02-16 15:32:07+00",12.8,13.8,,39.6,-11,553,1,1010.5,42.5,288.3
"2019-02-16 15:37:07+00",8.3,10.3,,39.8,-67,353,27,1010.65,42.7,151.2
"2019-02-16 15:42:07+00",8.7,10.7,,39.7,-35,372,18,1010.62,42.4,134.7
"2019-02-16 15:47:07+00",11.4,13.4,,39.8,-365,355,25,1010.78,42.3,310.1
"2019-02-16 15:52:07+00",7.3,8.3,,40,-218,229,62,1010.75,42.3,267.8
"2019-02-16 15:57:07+00",6.2,7.2,,40.1,42,254,-3,1010.62,42.6,189.8
"2019-02-16 16:02:07+00",10.1,11.1,,40.1,-76,432,1,1010.59,42.7,152
"2019-02-16 16:07:07+00",10.0,11.0,,40.2,-64,434,-1,1010.46,42.5,232.7
"2019-02-16 16:12:07+00",7.7,9.7,,40.3,-111,292,15,1010.56,42.7,256
"2019-02-16 16:17:07+00",7.1,8.1,,40.4,-58,299,1,1010.47,43.1,253.9
"2019-02-16 16:22:07+00",11.0,13.0,,40.7,-220,424,36,1010.44,43.3,326.2
"2019-02-16 16:27:07+00",8.7,10.7,,40.7,-278,274,54,1010.43,43.2,145.3
"2019-02-16 16:32:07+00",8.0,9.0,,40.5,-102,318,22,1010.31,42.6,206.2
"2019-02-16 16:37:07+00",9.9,11.9,,40.8,-41,433,22,1010.28,43,227.7
"2019-02-16 16:42:07+00",11.1,13.1,,40.9,-195,449,25,1010.21,43.3,255.8
"2019-02-16 16:47:07+00",8.4,10.4,,41.2,-136,328,19,1010.44,43.7,330.1
"2019-02-16 16:52:07+00",11.0,13.0,,41.4,-43,473,24,1010.36,44.4,347
"2019-02-16 16:57:07+00",8.6,12.6,,41.2,-93,355,18,1010.44,44.8,376.8
"2019-02-16 17:02:07+00",10.1,13.1,,41.4,-289,331,53,1010.38,45,365.7
"2019-02-16 17:07:07+00",8.3,10.3,,41.4,-219,298,39,1010.28,44.9,292.9
"2019-02-16 17:12:07+00",9.8,12.8,,41.5,-243,359,50,1010.26,44.6,232.2
"2019-02-16 17:17:07+00",11.1,13.1,,41,-29,489,25,1010.41,43.8,179.1
"2019-02-16 17:22:07+00",9.3,11.3,,41,-48,391,24,1010.47,43.6,187.5
"2019-02-16 17:27:07+00",12.7,14.7,,40.9,-384,411,31,1010.44,43.1,196.9
"2019-02-16 17:32:07+00",9.9,11.9,,40.7,-323,312,61,1010.38,42.5,162
"2019-02-16 17:37:07+00",8.6,11.6,,40.6,-294,249,28,1010.3,42.3,150.8
"2019-02-16 17:42:07+00",9.3,11.3,,40.7,-309,275,44,1010.09,42.1,151.1
"2019-02-16 17:47:07+00",8.7,9.7,,40.8,-328,192,37,1010.22,42.1,175
"2019-02-16 17:52:07+00",8.7,10.7,,40.9,-305,226,48,1010.28,42.3,176.5
"2019-02-16 17:57:07+00",7.6,9.6,,41,-293,169,34,1010.34,42.6,194.2
"2019-02-16 18:02:07+00",11.1,13.1,,41,-477,140,34,1010.26,42.9,216.8
"2019-02-16 18:07:07+00",7.4,8.4,,41.1,-272,178,48,1010.28,43,210.9
"2019-02-16 18:12:07+00",6.3,7.3,,41.2,-214,188,36,1010.24,43.2,191.1
"2019-02-16 18:17:07+00",7.0,8.0,,41.1,-246,160,30,1009.93,43.1,213.4
"2019-02-16 18:22:07+00",7.2,8.2,,41.1,-214,247,49,1009.76,43,214.9
"2019-02-16 18:27:07+00",8.0,9.0,,41.2,-281,203,16,1009.71,43.3,243.4
"2019-02-16 18:32:07+00",7.2,9.2,,41.3,-278,154,26,1009.73,43.3,184.9
"2019-02-16 18:37:07+00",6.7,7.7,,41.4,-251,164,19,1009.77,43.5,207.3
"2019-02-16 18:42:07+00",6.5,7.5,,41.4,-263,121,24,1009.64,43.6,174.9
"2019-02-16 18:47:07+00",4.9,5.9,,41.4,-192,89,7,1009.66,43.8,231
"2019-02-16 18:52:07+00",5.8,6.8,,41.6,-244,-11,16,1009.72,44.4,290.2
"2019-02-16 18:57:07+00",7.1,9.1,,41.7,-295,99,15,1009.6,45,222.4
"2019-02-16 19:02:07+00",5.0,7.0,,41.8,-205,-72,30,1009.56,45.4,181
"2019-02-16 19:07:07+00",3.0,4.0,,41.9,-122,-13,20,1009.61,45.5,182
"2019-02-16 19:12:07+00",6.2,7.2,,42.1,-255,101,47,1009.64,46.2,322.5
"2019-02-16 19:17:07+00",5.2,7.2,,42.5,-224,-12,44,1009.83,46.9,331.8
"2019-02-16 19:22:07+00",7.7,8.7,,42.4,-323,-42,37,1009.86,47.4,314.8
"2019-02-16 19:27:07+00",7.1,8.1,,42.6,-261,-172,17,1009.97,48.2,305.5
"2019-02-16 19:32:07+00",5.9,7.9,,42.9,-186,158,76,1009.89,48,294
"2019-02-16 19:37:07+00",8.3,9.3,,41.7,361,59,65,1009.81,47.6,255.3
"2019-02-16 19:42:07+00",9.4,11.4,,40.5,306,-261,10,1009.92,44.9,152.2
"2019-02-16 19:47:07+00",14.4,15.4,,39.3,617,-160,19,1009.86,43.2,245
"2019-02-16 19:52:07+00",10.4,11.4,,39.1,422,-220,39,1009.9,42,245.1
"2019-02-16 19:57:07+00",11.4,12.4,,39.3,397,-300,-5,1010.09,42,258.3
"2019-02-16 20:02:07+00",9.5,10.5,,39.6,364,-206,10,1010.12,42,250.9
"2019-02-16 20:07:07+00",10.2,11.2,,39.2,408,-200,-7,1010.19,42.2,244.8
"2019-02-16 20:12:07+00",9.4,10.4,,39.1,326,-253,-13,1010.08,42.2,235
"2019-02-16 20:17:07+00",8.9,9.9,,38.7,331,-193,2,1009.84,41.8,138.5
"2019-02-16 20:22:07+00",7.4,8.4,,38.7,273,-174,8,1009.91,41.5,135
"2019-02-16 20:27:07+00",9.3,10.3,,38.4,352,-202,-2,1009.78,41,118.9
"2019-02-16 20:32:07+00",9.2,10.2,,38.4,374,-126,34,1009.87,40.8,129.2
"2019-02-16 20:37:07+00",7.6,8.6,,38.4,318,-97,16,1009.83,40.6,98.2
"2019-02-16 20:42:07+00",8.0,9.0,,38.1,323,-142,-9,1009.9,40.3,97.1
"2019-02-16 20:47:07+00",9.3,10.3,,38.1,342,-214,-9,1009.99,40.1,140.4
"2019-02-16 20:52:07+00",10.6,11.6,,38,436,-164,7,1009.97,40,153.8
"2019-02-16 20:57:07+00",11.2,12.2,,38.1,471,-155,-9,1009.75,39.8,175.2
"2019-02-16 21:02:07+00",9.5,10.5,,38.1,381,-168,23,1009.78,39.8,150.4
"2019-02-16 21:07:07+00",8.4,9.4,,38.5,307,-191,0,1009.72,40.2,148.7
"2019-02-16 21:12:07+00",7.0,7.0,,38.8,270,-140,-2,1009.75,40.5,129.4
"2019-02-16 21:17:07+00",5.6,6.6,,38.9,198,-137,1,1009.69,40.8,118.4
"2019-02-16 21:22:07+00",8.5,9.5,,38.8,304,-214,-1,1009.91,40.6,107.7
"2019-02-16 21:27:07+00",8.5,9.5,,38.4,331,-164,11,1009.99,40.2,93.5
"2019-02-16 21:32:07+00",7.3,8.3,,38.3,290,-120,33,1010.06,39.9,25.8
"2019-02-16 21:37:07+00",6.1,6.1,,38.3,201,-162,9,1010.32,39.6,72.1
"2019-02-16 21:42:07+00",5.4,6.4,,38.4,146,-174,8,1010.31,39.6,67.6
"2019-02-16 21:47:07+00",6.3,7.3,,38.5,139,-228,-2,1010.55,39.5,58.9
"2019-02-16 21:52:07+00",6.2,7.2,,38.4,161,-200,1,1010.78,39.3,48.9
"2019-02-16 21:57:07+00",5.9,6.9,,38.3,152,-193,-11,1010.94,39.2,36.7
"2019-02-16 22:02:07+00",7.0,7.0,,38.2,167,-248,-15,1010.98,38.9,26.9
"2019-02-16 22:07:07+00",6.5,7.5,,38.1,161,-228,-1,1010.92,38.6,15.8
"2019-02-16 22:12:07+00",5.7,6.7,,38.1,166,-174,2,1011.11,38.5,6.6
"2019-02-16 22:17:07+00",6.3,6.3,,37.9,200,-181,-1,1011.15,38.4,0.5
"2019-02-16 22:22:07+00",6.3,6.3,,37.8,167,-209,0,1011.33,38.2,0
"2019-02-16 22:27:07+00",5.6,6.6,,37.7,86,-213,-1,1011.36,37.9,0
"2019-02-16 22:32:07+00",5.0,6.0,,37.5,29,-211,-2,1011.51,37.5,0
"2019-02-16 22:37:07+00",5.8,6.8,,37.4,88,-227,-3,1011.54,37.1,0
"2019-02-16 22:42:07+00",4.7,4.7,,37.3,91,-172,4,1011.65,36.8,0
"2019-02-16 22:47:07+00",4.7,4.7,,37.1,134,-145,1,1011.83,36.5,0
"2019-02-16 22:52:07+00",5.1,6.1,,37,135,-165,0,1011.8,36.1,0
"2019-02-16 22:57:07+00",4.6,5.6,,37,158,-104,-1,1011.64,35.8,0
"2019-02-16 23:02:07+00",5.7,5.7,,37,181,-160,5,1011.73,35.6,0
"2019-02-16 23:07:07+00",5.7,5.7,,37.1,193,-150,1,1011.68,35.3,0
"2019-02-16 23:12:07+00",5.8,5.8,,37.1,180,-167,6,1011.73,35,0
"2019-02-16 23:17:07+00",5.7,5.7,,37.1,224,-104,10,1011.66,34.7,0
"2019-02-16 23:22:07+00",5.4,6.4,,37,211,-99,11,1011.67,34.6,0
"2019-02-16 23:27:07+00",6.3,6.3,,37.1,237,-133,9,1011.77,34.4,0
"2019-02-16 23:32:07+00",5.6,6.6,,37.2,233,-75,8,1011.89,34.3,0
"2019-02-16 23:37:07+00",5.8,5.8,,37.3,234,-96,12,1011.82,34.2,0
"2019-02-16 23:42:07+00",5.0,5.0,,37.3,192,-93,12,1011.92,34,0
"2019-02-16 23:47:07+00",4.7,4.7,,37.2,191,-65,5,1011.97,33.9,0
"2019-02-16 23:52:07+00",4.4,4.4,,36.9,186,-33,4,1011.87,33.7,0
"2019-02-16 23:57:07+00",4.6,5.6,,36.8,191,-34,15,1011.95,33.5,0
